QPF
0.02 0.03 0.03 0.02 0.02 0.02 0.03 0.03 0.03 0.02 0.02 0.02 0.02 0.01 0.01 0.02 0.02 0.02 0.02 0.01 0.02 0.05 0.10 0.14 0.15 0.14 0.13 0.11 0.09 0.08 0.06 0.04 0.04 0.05 0.04 0.03 0.03 0.04 0.03 0.03 0.03 0.02 0.02
0.04 0.04 0.05 0.04 0.05 0.05 0.05 0.06 0.05 0.06 0.06 0.06 0.04 0.02 0.02 0.03 0.03 0.03 0.03 0.04 0.03 0.04 0.08 0.13 0.17 0.16 0.14 0.14 0.12 0.11 0.09 0.09 0.08 0.07 0.06 0.05 0.04 0.04 0.03 0.03 0.03 0.02 0.02
0.06 0.06 0.07 0.07 0.08 0.08 0.07 0.07 0.07 0.07 0.06 0.06 0.06 0.04 0.02 0.02 0.02 0.02 0.03 0.04 0.04 0.04 0.07 0.09 0.13 0.15 0.17 0.19 0.20 0.20 0.17 0.14 0.13 0.12 0.10 0.09 0.07 0.06 0.05 0.04 0.04 0.03 0.02
0.07 0.07 0.10 0.10 0.10 0.09 0.10 0.10 0.09 0.09 0.08 0.08 0.06 0.05 0.04 0.02 0.02 0.02 0.02 0.04 0.05 0.05 0.07 0.08 0.09 0.11 0.14 0.20 0.24 0.24 0.21 0.18 0.17 0.16 0.15 0.14 0.12 0.10 0.08 0.07 0.06 0.05 0.04
0.10 0.10 0.13 0.15 0.14 0.14 0.12 0.11 0.10 0.09 0.10 0.10 0.06 0.05 0.03 0.03 0.03 0.02 0.03 0.04 0.04 0.04 0.05 0.07 0.07 0.09 0.11 0.16 0.20 0.23 0.22 0.22 0.22 0.19 0.17 0.17 0.16 0.15 0.11 0.09 0.07 0.06 0.05
0.21 0.20 0.19 0.19 0.16 0.14 0.11 0.10 0.10 0.09 0.10 0.10 0.07 0.05 0.04 0.03 0.03 0.03 0.03 0.02 0.03 0.03 0.04 0.05 0.06 0.06 0.07 0.10 0.13 0.17 0.20 0.21 0.22 0.21 0.20 0.21 0.18 0.13 0.09 0.08 0.07 0.06 0.06
0.26 0.26 0.23 0.20 0.17 0.14 0.11 0.12 0.10 0.08 0.07 0.07 0.08 0.07 0.05 0.03 0.02 0.02 0.02 0.02 0.02 0.02 0.02 0.03 0.03 0.03 0.04 0.06 0.08 0.09 0.12 0.16 0.21 0.24 0.25 0.23 0.18 0.15 0.14 0.12 0.11 0.10 0.09
0.25 0.25 0.23 0.21 0.18 0.16 0.13 0.11 0.08 0.07 0.06 0.07 0.07 0.08 0.07 0.06 0.04 0.03 0.01 0.01 0.01 0.01 0.01 0.01 0.01 0.02 0.03 0.04 0.07 0.09 0.12 0.16 0.20 0.21 0.19 0.18 0.17 0.17 0.16 0.16 0.16 0.15 0.14
0.25 0.26 0.23 0.21 0.19 0.16 0.13 0.10 0.08 0.08 0.08 0.07 0.07 0.09 0.09 0.09 0.06 0.03 0.01 0.01 0.01 0.00 0.00 0.01 0.02 0.02 0.03 0.04 0.05 0.08 0.11 0.12 0.13 0.12 0.12 0.12 0.13 0.14 0.14 0.15 0.16 0.18 0.18
0.21 0.21 0.20 0.19 0.17 0.14 0.10 0.08 0.08 0.08 0.07 0.07 0.07 0.07 0.07 0.07 0.07 0.06 0.04 0.02 0.01 0.01 0.01 0.01 0.01 0.01 0.02 0.02 0.03 0.05 0.08 0.09 0.10 0.10 0.08 0.08 0.08 0.09 0.10 0.10 0.11 0.11 0.12
0.23 0.22 0.20 0.18 0.15 0.12 0.08 0.07 0.06 0.05 0.05 0.04 0.04 0.05 0.05 0.05 0.05 0.06 0.05 0.03 0.02 0.02 0.01 0.01 0.01 0.01 0.01 0.01 0.02 0.05 0.07 0.07 0.07 0.07 0.06 0.06 0.06 0.06 0.07 0.07 0.08 0.09 0.09
0.27 0.26 0.21 0.18 0.14 0.10 0.08 0.07 0.05 0.05 0.04 0.03 0.03 0.03 0.03 0.03 0.03 0.03 0.03 0.02 0.02 0.02 0.01 0.01 0.01 0.01 0.01 0.01 0.02 0.04 0.04 0.04 0.04 0.04 0.05 0.05 0.05 0.06 0.06 0.07 0.07 0.08 0.08
0.29 0.26 0.21 0.17 0.13 0.09 0.07 0.05 0.04 0.04 0.03 0.02 0.02 0.01 0.01 0.01 0.01 0.01 0.01 0.01 0.01 0.01 0.01 0.01 0.01 0.01 0.01 0.01 0.02 0.03 0.03 0.03 0.03 0.03 0.03 0.04 0.04 0.05 0.05 0.05 0.06 0.06 0.06
0.24 0.19 0.16 0.12 0.08 0.06 0.05 0.03 0.03 0.02 0.02 0.01 0.01 0.01 0.01 0.00 0.00 0.00 0.01 0.01 0.01 0.01 0.01 0.01 0.00 0.00 0.00 0.01 0.01 0.02 0.02 0.02 0.02 0.02 0.02 0.02 0.03 0.03 0.03 0.04 0.04 0.04 0.05
0.14 0.12 0.09 0.06 0.04 0.03 0.02 0.02 0.01 0.01 0.01 0.00 0.00 0.00 0.00 0.00 0.00 0.00 0.00 0.00 0.00 0.00 0.00 0.00 0.00 0.00 0.00 0.00 0.01 0.01 0.01 0.01 0.01 0.01 0.01 0.02 0.02 0.02 0.03 0.03 0.03 0.03 0.03
0.08 0.07 0.05 0.03 0.03 0.03 0.01 0.01 0.00 0.00 0.00 0.00 0.00 0.00 0.00 0.00 0.00 0.00 0.00 0.00 0.00 0.00 0.00 0.00 0.00 0.00 0.00 0.00 0.00 0.00 0.00 0.01 0.01 0.00 0.00 0.01 0.01 0.01 0.02 0.02 0.02 0.02 0.02
0.04 0.03 0.03 0.02 0.02 0.01 0.01 0.01 0.01 0.01 0.00 0.00 0.00 0.00 0.00 0.00 0.00 0.00 0.00 0.00 0.00 0.00 0.00 0.00 0.00 0.00 0.00 0.00 0.00 0.00 0.00 0.00 0.01 0.01 0.00 0.01 0.01 0.01 0.01 0.02 0.02 0.02 0.02
0.04 0.03 0.02 0.01 0.01 0.01 0.00 0.00 0.00 0.00 0.00 0.00 0.00 0.00 0.00 0.00 0.00 0.00 0.00 0.00 0.00 0.00 0.00 0.00 0.00 0.00 0.00 0.00 0.00 0.00 0.00 0.00 0.01 0.00 0.00 0.01 0.01 0.01 0.01 0.02 0.02 0.02 0.02
0.02 0.01 0.01 0.00 0.00 0.00 0.00 0.00 0.00 0.00 0.00 0.00 0.00 0.00 0.00 0.00 0.00 0.00 0.00 0.00 0.00 0.00 0.00 0.00 0.00 0.00 0.00 0.00 0.00 0.00 0.00 0.00 0.00 0.00 0.00 0.00 0.00 0.00 0.00 0.00 0.00 0.01 0.01
0.00 0.00 0.00 0.00 0.00 0.00 0.00 0.00 0.00 0.00 0.00 0.00 0.00 0.00 0.00 0.00 0.00 0.00 0.00 0.00 0.00 0.00 0.00 0.00 0.00 0.00 0.00 0.00 0.01 0.01 0.01 0.01 0.01 0.00 0.00 0.00 0.00 0.00 0.00 0.00 0.00 0.00 0.00
0.00 0.00 0.00 0.00 0.00 0.00 0.00 0.00 0.00 0.00 0.00 0.00 0.00 0.00 0.00 0.00 0.00 0.00 0.00 0.00 0.00 0.01 0.01 0.01 0.01 0.01 0.01 0.01 0.01 0.01 0.01 0.01 0.02 0.01 0.01 0.02 0.01 0.02 0.02 0.01 0.00 0.00 0.00
0.00 0.00 0.00 0.00 0.00 0.00 0.00 0.00 0.00 0.00 0.00 0.00 0.00 0.00 0.00 0.00 0.00 0.00 0.00 0.00 0.00 0.00 0.01 0.01 0.01 0.02 0.02 0.02 0.02 0.02 0.02 0.02 0.03 0.03 0.02 0.02 0.01 0.03 0.03 0.02 0.01 0.00 0.00
0.00 0.00 0.00 0.00 0.00 0.00 0.00 0.00 0.00 0.00 0.00 0.00 0.01 0.01 0.00 0.00 0.00 0.00 0.00 0.00 0.00 0.00 0.00 0.00 0.01 0.03 0.03 0.03 0.02 0.02 0.03 0.03 0.03 0.02 0.02 0.03 0.03 0.03 0.02 0.00 0.00 0.00 0.00
0.00 0.00 0.00 0.00 0.00 0.00 0.00 0.00 0.00 0.00 0.01 0.01 0.01 0.01 0.01 0.01 0.00 0.00 0.00 0.01 0.01 0.01 0.00 0.00 0.02 0.03 0.01 0.01 0.01 0.02 0.02 0.02 0.04 0.04 0.02 0.04 0.04 0.03 0.02 0.02 0.00 0.00 0.00
0.01 0.01 0.00 0.01 0.01 0.00 0.00 0.00 0.00 0.00 0.00 0.00 0.00 0.00 0.00 0.01 0.00 0.00 0.01 0.03 0.03 0.03 0.00 0.00 0.00 0.00 0.00 0.00 0.00 0.01 0.03 0.05 0.07 0.07 0.04 0.04 0.05 0.04 0.04 0.04 0.02 0.00 0.00
0.01 0.01 0.01 0.01 0.01 0.01 0.00 0.00 0.00 0.00 0.00 0.00 0.00 0.00 0.00 0.00 0.00 0.00 0.01 0.03 0.03 0.02 0.02 0.02 0.02 0.02 0.02 0.02 0.01 0.03 0.05 0.05 0.07 0.08 0.06 0.05 0.06 0.05 0.05 0.05 0.04 0.03 0.03
MSLP
1016.65 1016.97 1017.27 1017.55 1017.81 1018.03 1018.21 1018.32 1018.37 1018.35 1018.28 1018.17 1018.06 1017.97 1017.93 1017.96 1018.07 1018.24 1018.45 1018.66 1018.85 1018.99 1019.05 1019.03 1018.95 1018.84 1018.72 1018.63 1018.60 1018.63 1018.72 1018.86 1019.03 1019.22 1019.39 1019.54 1019.67 1019.77 1019.85 1019.92 1019.99 1020.06 1020.13
1016.40 1016.72 1017.03 1017.32 1017.60 1017.85 1018.07 1018.24 1018.36 1018.43 1018.46 1018.46 1018.46 1018.45 1018.48 1018.53 1018.63 1018.75 1018.88 1018.99 1019.07 1019.09 1019.06 1018.96 1018.83 1018.69 1018.56 1018.47 1018.44 1018.48 1018.58 1018.73 1018.90 1019.08 1019.25 1019.40 1019.52 1019.61 1019.68 1019.73 1019.77 1019.80 1019.83
1016.25 1016.57 1016.89 1017.21 1017.52 1017.81 1018.07 1018.31 1018.51 1018.68 1018.82 1018.94 1019.04 1019.13 1019.22 1019.31 1019.39 1019.46 1019.51 1019.52 1019.49 1019.41 1019.28 1019.12 1018.94 1018.77 1018.64 1018.55 1018.53 1018.58 1018.68 1018.82 1018.99 1019.15 1019.30 1019.43 1019.52 1019.59 1019.63 1019.64 1019.63 1019.61 1019.58
1016.22 1016.55 1016.89 1017.23 1017.57 1017.89 1018.20 1018.50 1018.77 1019.03 1019.27 1019.49 1019.69 1019.87 1020.02 1020.14 1020.23 1020.27 1020.25 1020.19 1020.07 1019.90 1019.70 1019.49 1019.29 1019.11 1018.98 1018.90 1018.89 1018.94 1019.03 1019.16 1019.30 1019.43 1019.54 1019.63 1019.69 1019.71 1019.70 1019.66 1019.60 1019.51 1019.41
1016.32 1016.67 1017.04 1017.40 1017.76 1018.11 1018.45 1018.77 1019.09 1019.40 1019.70 1020.00 1020.28 1020.53 1020.74 1020.90 1021.00 1021.03 1020.99 1020.88 1020.71 1020.50 1020.27 1020.04 1019.83 1019.66 1019.54 1019.48 1019.48 1019.52 1019.60 1019.70 1019.80 1019.88 1019.95 1019.98 1019.98 1019.95 1019.89 1019.79 1019.67 1019.51 1019.33
1016.55 1016.93 1017.32 1017.71 1018.08 1018.43 1018.77 1019.09 1019.41 1019.73 1020.06 1020.39 1020.71 1021.01 1021.26 1021.46 1021.59 1021.64 1021.60 1021.49 1021.33 1021.12 1020.90 1020.69 1020.50 1020.36 1020.27 1020.22 1020.23 1020.26 1020.32 1020.38 1020.43 1020.46 1020.46 1020.44 1020.38 1020.29 1020.17 1020.02 1019.83 1019.61 1019.36
1016.90 1017.32 1017.74 1018.14 1018.51 1018.85 1019.15 1019.44 1019.72 1020.01 1020.32 1020.63 1020.95 1021.26 1021.54 1021.77 1021.93 1022.02 1022.02 1021.95 1021.83 1021.67 1021.50 1021.34 1021.20 1021.10 1021.05 1021.03 1021.04 1021.07 1021.09 1021.11 1021.11 1021.09 1021.03 1020.94 1020.82 1020.68 1020.51 1020.30 1020.07 1019.79 1019.49
1017.35 1017.82 1018.26 1018.67 1019.03 1019.33 1019.59 1019.82 1020.03 1020.25 1020.49 1020.76 1021.04 1021.33 1021.61 1021.85 1022.05 1022.17 1022.23 1022.23 1022.17 1022.09 1022.00 1021.91 1021.84 1021.81 1021.79 1021.80 1021.82 1021.84 1021.85 1021.83 1021.78 1021.69 1021.58 1021.43 1021.26 1021.07 1020.85 1020.61 1020.33 1020.03 1019.69
1017.89 1018.40 1018.86 1019.27 1019.61 1019.87 1020.07 1020.23 1020.36 1020.49 1020.65 1020.83 1021.06 1021.30 1021.55 1021.79 1022.00 1022.17 1022.28 1022.35 1022.38 1022.38 1022.37 1022.36 1022.37 1022.39 1022.43 1022.47 1022.50 1022.51 1022.49 1022.44 1022.35 1022.22 1022.05 1021.86 1021.65 1021.41 1021.16 1020.89 1020.59 1020.27 1019.92
1018.49 1019.02 1019.50 1019.90 1020.22 1020.44 1020.59 1020.67 1020.73 1020.78 1020.85 1020.96 1021.10 1021.29 1021.50 1021.72 1021.92 1022.11 1022.26 1022.38 1022.48 1022.55 1022.62 1022.68 1022.75 1022.83 1022.90 1022.96 1023.00 1023.01 1022.97 1022.90 1022.78 1022.61 1022.41 1022.19 1021.94 1021.68 1021.40 1021.11 1020.80 1020.47 1020.13
1019.10 1019.65 1020.13 1020.52 1020.81 1021.00 1021.11 1021.15 1021.15 1021.14 1021.15 1021.19 1021.27 1021.39 1021.55 1021.73 1021.92 1022.10 1022.26 1022.41 1022.54 1022.66 1022.77 1022.88 1023.00 1023.10 1023.20 1023.27 1023.31 1023.32 1023.27 1023.18 1023.04 1022.85 1022.63 1022.38 1022.12 1021.84 1021.54 1021.24 1020.93 1020.61 1020.27
1019.70 1020.24 1020.70 1021.07 1021.34 1021.51 1021.60 1021.62 1021.60 1021.57 1021.54 1021.55 1021.59 1021.66 1021.78 1021.91 1022.06 1022.21 1022.36 1022.50 1022.63 1022.75 1022.88 1023.00 1023.12 1023.23 1023.32 1023.40 1023.43 1023.43 1023.38 1023.28 1023.13 1022.93 1022.71 1022.45 1022.17 1021.88 1021.58 1021.27 1020.96 1020.64 1020.33
1020.27 1020.78 1021.20 1021.53 1021.78 1021.94 1022.03 1022.06 1022.06 1022.04 1022.02 1022.02 1022.05 1022.10 1022.17 1022.27 1022.37 1022.48 1022.58 1022.68 1022.77 1022.86 1022.96 1023.05 1023.15 1023.24 1023.31 1023.37 1023.39 1023.37 1023.31 1023.21 1023.06 1022.87 1022.64 1022.39 1022.11 1021.82 1021.52 1021.21 1020.90 1020.59 1020.28
1020.81 1021.25 1021.62 1021.90 1022.12 1022.28 1022.39 1022.45 1022.49 1022.51 1022.53 1022.56 1022.60 1022.65 1022.71 1022.77 1022.82 1022.87 1022.91 1022.95 1022.98 1023.01 1023.05 1023.09 1023.13 1023.17 1023.20 1023.22 1023.22 1023.18 1023.11 1023.00 1022.86 1022.67 1022.46 1022.22 1021.95 1021.67 1021.38 1021.08 1020.77 1020.46 1020.17
1021.34 1021.70 1021.99 1022.22 1022.41 1022.56 1022.69 1022.78 1022.87 1022.95 1023.03 1023.11 1023.18 1023.25 1023.30 1023.34 1023.36 1023.35 1023.33 1023.29 1023.25 1023.20 1023.16 1023.12 1023.09 1023.07 1023.05 1023.02 1022.98 1022.91 1022.83 1022.71 1022.57 1022.39 1022.19 1021.97 1021.72 1021.46 1021.18 1020.90 1020.61 1020.31 1020.02
1021.87 1022.15 1022.37 1022.55 1022.70 1022.84 1022.97 1023.10 1023.23 1023.37 1023.50 1023.63 1023.74 1023.83 1023.90 1023.92 1023.91 1023.86 1023.78 1023.67 1023.54 1023.42 1023.29 1023.18 1023.07 1022.98 1022.90 1022.81 1022.72 1022.62 1022.51 1022.38 1022.23 1022.06 1021.87 1021.67 1021.45 1021.22 1020.97 1020.71 1020.44 1020.16 1019.88
1022.45 1022.65 1022.81 1022.94 1023.05 1023.17 1023.29 1023.44 1023.59 1023.76 1023.93 1024.10 1024.24 1024.36 1024.43 1024.45 1024.42 1024.33 1024.21 1024.04 1023.86 1023.66 1023.47 1023.28 1023.10 1022.94 1022.79 1022.65 1022.51 1022.37 1022.22 1022.06 1021.90 1021.72 1021.54 1021.35 1021.16 1020.96 1020.75 1020.53 1020.30 1020.05 1019.79
1023.08 1023.24 1023.35 1023.43 1023.52 1023.61 1023.71 1023.84 1023.99 1024.17 1024.35 1024.52 1024.68 1024.80 1024.88 1024.90 1024.85 1024.75 1024.59 1024.40 1024.17 1023.92 1023.67 1023.43 1023.20 1022.98 1022.77 1022.58 1022.38 1022.19 1022.00 1021.80 1021.61 1021.42 1021.23 1021.05 1020.88 1020.71 1020.54 1020.37 1020.18 1019.98 1019.76
1023.75 1023.88 1023.98 1024.05 1024.10 1024.16 1024.24 1024.33 1024.45 1024.60 1024.75 1024.91 1025.06 1025.17 1025.24 1025.26 1025.21 1025.10 1024.93 1024.71 1024.46 1024.19 1023.91 1023.64 1023.37 1023.10 1022.85 1022.60 1022.35 1022.11 1021.86 1021.62 1021.39 1021.17 1020.96 1020.78 1020.61 1020.47 1020.34 1020.21 1020.08 1019.94 1019.77
1024.41 1024.56 1024.66 1024.73 1024.77 1024.81 1024.84 1024.89 1024.96 1025.05 1025.16 1025.28 1025.39 1025.48 1025.54 1025.54 1025.49 1025.38 1025.21 1024.99 1024.74 1024.46 1024.17 1023.88 1023.58 1023.29 1023.01 1022.71 1022.42 1022.13 1021.83 1021.53 1021.24 1020.98 1020.74 1020.54 1020.37 1020.24 1020.14 1020.06 1019.98 1019.90 1019.79
1024.99 1025.18 1025.32 1025.40 1025.45 1025.46 1025.46 1025.46 1025.47 1025.50 1025.54 1025.61 1025.67 1025.73 1025.76 1025.76 1025.70 1025.60 1025.43 1025.23 1024.98 1024.71 1024.42 1024.12 1023.82 1023.52 1023.21 1022.89 1022.56 1022.21 1021.86 1021.51 1021.17 1020.86 1020.58 1020.34 1020.16 1020.03 1019.94 1019.89 1019.85 1019.82 1019.76
1025.44 1025.68 1025.86 1025.98 1026.04 1026.05 1026.02 1025.97 1025.93 1025.89 1025.88 1025.89 1025.91 1025.93 1025.94 1025.92 1025.86 1025.76 1025.61 1025.41 1025.17 1024.91 1024.63 1024.34 1024.04 1023.73 1023.41 1023.07 1022.71 1022.33 1021.94 1021.54 1021.15 1020.78 1020.46 1020.19 1019.97 1019.83 1019.74 1019.70 1019.68 1019.68 1019.66
1025.71 1026.01 1026.24 1026.39 1026.47 1026.49 1026.44 1026.37 1026.28 1026.20 1026.14 1026.10 1026.09 1026.08 1026.07 1026.04 1025.98 1025.87 1025.72 1025.53 1025.31 1025.05 1024.78 1024.49 1024.19 1023.88 1023.55 1023.20 1022.83 1022.43 1022.01 1021.58 1021.15 1020.74 1020.37 1020.06 1019.81 1019.64 1019.53 1019.48 1019.46 1019.46 1019.46
1025.80 1026.14 1026.41 1026.60 1026.71 1026.73 1026.69 1026.61 1026.50 1026.40 1026.31 1026.25 1026.21 1026.19 1026.16 1026.12 1026.05 1025.94 1025.79 1025.60 1025.37 1025.11 1024.84 1024.55 1024.25 1023.93 1023.60 1023.25 1022.87 1022.47 1022.04 1021.59 1021.14 1020.70 1020.30 1019.96 1019.68 1019.46 1019.32 1019.24 1019.20 1019.19 1019.18
1025.76 1026.13 1026.42 1026.64 1026.77 1026.81 1026.79 1026.71 1026.61 1026.51 1026.42 1026.35 1026.30 1026.27 1026.24 1026.19 1026.11 1025.98 1025.82 1025.61 1025.37 1025.09 1024.81 1024.50 1024.19 1023.88 1023.54 1023.20 1022.82 1022.42 1021.99 1021.54 1021.09 1020.65 1020.24 1019.87 1019.56 1019.31 1019.13 1019.01 1018.93 1018.89 1018.85
1025.67 1026.04 1026.35 1026.58 1026.73 1026.80 1026.79 1026.74 1026.67 1026.58 1026.50 1026.44 1026.39 1026.35 1026.31 1026.25 1026.15 1026.01 1025.82 1025.59 1025.32 1025.02 1024.70 1024.38 1024.05 1023.72 1023.38 1023.04 1022.67 1022.28 1021.87 1021.44 1021.01 1020.57 1020.16 1019.79 1019.46 1019.18 1018.97 1018.80 1018.67 1018.58 1018.50
Thickness
5732 5731 5730 5729 5730 5730 5728 5726 5727 5727 5726 5726 5726 5727 5727 5727 5726 5726 5724 5719 5716 5714 5713 5711 5710 5708 5706 5705 5703 5701 5700 5698 5697 5695 5693 5692 5691 5690 5688 5687 5686 5685 5684
5730 5729 5728 5726 5726 5726 5726 5724 5724 5723 5722 5723 5723 5722 5721 5722 5721 5719 5720 5717 5713 5712 5710 5709 5707 5706 5704 5702 5701 5699 5697 5695 5693 5691 5690 5688 5686 5685 5684 5683 5682 5680 5679
5726 5725 5725 5723 5723 5722 5720 5719 5719 5719 5718 5719 5718 5717 5716 5716 5716 5714 5713 5712 5711 5708 5706 5704 5703 5702 5700 5699 5697 5695 5693 5691 5689 5687 5685 5683 5682 5680 5679 5677 5676 5675 5673
5722 5720 5721 5721 5719 5718 5717 5716 5716 5714 5714 5714 5713 5712 5711 5709 5708 5707 5707 5706 5704 5703 5701 5698 5697 5696 5694 5693 5692 5690 5688 5687 5684 5682 5680 5678 5676 5674 5672 5671 5669 5668 5667
5718 5716 5716 5715 5714 5714 5713 5713 5712 5710 5708 5706 5706 5705 5704 5702 5700 5699 5698 5696 5695 5694 5693 5691 5689 5688 5687 5685 5685 5683 5682 5680 5678 5676 5673 5671 5668 5666 5664 5663 5661 5660 5659
5713 5712 5710 5709 5709 5708 5707 5706 5704 5703 5702 5700 5701 5698 5696 5695 5693 5691 5690 5688 5686 5685 5684 5683 5682 5680 5677 5676 5675 5674 5673 5672 5670 5668 5665 5663 5660 5658 5656 5654 5652 5650 5649
5706 5705 5705 5703 5702 5701 5700 5699 5698 5695 5694 5694 5692 5688 5687 5686 5684 5682 5681 5679 5677 5675 5674 5672 5671 5669 5668 5665 5663 5663 5662 5661 5660 5657 5655 5653 5651 5649 5647 5645 5643 5640 5639
5699 5698 5697 5695 5694 5693 5691 5690 5690 5689 5687 5686 5686 5683 5679 5676 5673 5672 5671 5669 5667 5665 5663 5661 5659 5657 5656 5654 5651 5650 5649 5648 5647 5645 5643 5641 5638 5636 5635 5634 5631 5629 5628
5687 5688 5687 5685 5685 5685 5682 5681 5682 5682 5680 5678 5677 5677 5674 5672 5667 5663 5660 5658 5657 5655 5653 5650 5648 5646 5644 5642 5640 5637 5635 5634 5632 5630 5628 5626 5624 5622 5620 5619 5619 5618 5616
5675 5675 5675 5675 5674 5674 5673 5672 5672 5672 5672 5670 5667 5666 5666 5666 5662 5656 5651 5648 5645 5643 5641 5639 5637 5634 5632 5630 5626 5623 5621 5620 5618 5615 5614 5611 5609 5607 5606 5604 5603 5602 5601
5662 5662 5661 5661 5660 5660 5660 5660 5660 5661 5661 5660 5658 5657 5655 5654 5655 5651 5644 5638 5636 5632 5630 5627 5625 5622 5619 5617 5614 5610 5608 5605 5603 5601 5599 5597 5594 5593 5591 5590 5588 5587 5585
5648 5648 5648 5648 5648 5648 5647 5648 5649 5648 5647 5646 5646 5646 5645 5645 5644 5642 5637 5632 5628 5622 5618 5615 5614 5611 5608 5605 5602 5597 5594 5592 5590 5587 5585 5583 5581 5579 5577 5575 5573 5571 5570
5636 5635 5635 5635 5634 5635 5635 5636 5635 5635 5634 5634 5633 5632 5632 5632 5632 5631 5630 5625 5619 5614 5608 5606 5602 5599 5596 5593 5589 5584 5582 5579 5576 5574 5571 5569 5567 5565 5563 5560 5558 5556 5554
5624 5623 5623 5622 5622 5622 5623 5623 5623 5622 5621 5621 5620 5619 5620 5619 5620 5619 5618 5616 5612 5607 5601 5595 5592 5587 5584 5581 5576 5572 5572 5567 5563 5561 5558 5556 5554 5551 5549 5547 5544 5542 5540
5614 5612 5612 5611 5610 5610 5610 5611 5610 5610 5610 5611 5609 5608 5608 5606 5605 5605 5604 5603 5602 5600 5594 5585 5583 5577 5572 5569 5564 5562 5560 5555 5551 5548 5546 5543 5540 5538 5535 5532 5530 5528 5525
5603 5602 5601 5601 5600 5599 5599 5599 5599 5597 5597 5596 5595 5593 5594 5594 5592 5591 5590 5588 5587 5586 5583 5577 5570 5565 5559 5557 5553 5550 5548 5544 5541 5537 5534 5531 5528 5524 5522 5519 5516 5513 5511
5592 5591 5591 5591 5590 5589 5588 5588 5588 5587 5586 5584 5583 5581 5580 5579 5579 5578 5577 5575 5572 5570 5567 5564 5560 5554 5547 5544 5542 5539 5538 5536 5535 5528 5523 5520 5516 5513 5509 5506 5503 5500 5498
5582 5581 5581 5581 5580 5579 5578 5578 5577 5576 5575 5573 5571 5569 5568 5566 5563 5562 5561 5559 5556 5551 5552 5548 5546 5544 5538 5534 5531 5529 5530 5528 5524 5519 5515 5511 5507 5503 5499 5496 5492 5490 5488
5571 5571 5570 5570 5569 5569 5568 5567 5565 5564 5563 5561 5559 5557 5555 5552 5550 5548 5546 5545 5543 5541 5537 5537 5536 5531 5530 5526 5523 5523 5522 5517 5517 5513 5508 5504 5499 5494 5491 5487 5484 5481 5479
5561 5560 5559 5559 5558 5558 5557 5556 5554 5552 5550 5548 5546 5544 5542 5540 5537 5535 5534 5531 5530 5529 5527 5528 5526 5524 5521 5518 5516 5515 5514 5512 5509 5507 5502 5499 5494 5490 5486 5482 5478 5475 5472
5551 5550 5549 5548 5547 5546 5543 5542 5542 5541 5539 5537 5535 5533 5528 5523 5519 5518 5520 5518 5518 5518 5519 5519 5517 5516 5513 5510 5509 5507 5506 5504 5503 5500 5497 5496 5493 5489 5484 5478 5473 5469 5467
5540 5539 5538 5537 5535 5531 5525 5525 5527 5530 5528 5527 5524 5522 5519 5516 5510 5507 5505 5503 5501 5504 5506 5506 5508 5505 5502 5501 5499 5497 5497 5496 5496 5494 5491 5492 5490 5487 5482 5477 5469 5465 5462
5530 5528 5527 5526 5523 5516 5513 5513 5514 5518 5518 5515 5513 5512 5512 5508 5504 5503 5501 5496 5496 5493 5490 5492 5496 5494 5494 5492 5490 5490 5490 5489 5488 5488 5486 5487 5487 5484 5480 5473 5467 5462 5458
5521 5519 5517 5516 5512 5506 5503 5503 5503 5508 5509 5506 5504 5503 5501 5499 5496 5491 5495 5497 5496 5494 5489 5487 5487 5486 5486 5484 5482 5483 5482 5483 5484 5484 5482 5483 5484 5481 5479 5472 5465 5460 5456
5513 5511 5509 5507 5504 5498 5493 5494 5494 5502 5502 5500 5498 5495 5492 5492 5484 5483 5487 5491 5491 5489 5486 5482 5480 5479 5478 5476 5475 5477 5481 5483 5483 5482 5481 5480 5480 5479 5477 5472 5466 5460 5455
5506 5504 5501 5499 5496 5492 5486 5486 5486 5498 5496 5496 5493 5490 5483 5481 5478 5477 5482 5484 5484 5483 5482 5483 5479 5479 5478 5477 5473 5472 5476 5478 5479 5479 5478 5477 5477 5476 5474 5472 5467 5462 5456